Terug naar catalogus

IMPULSE-3 MIRA

ActiefMilitairSSO
NORAD 66687·PAYLOAD·🇺🇸 United States

Gelanceerd Nov 28, 2025 vanaf Vandenberg Space Force Base

Loading…

Volgende Passages (komende 24 uur)

TLE

VersSource: Space-Track

Epoch: Sep 14, 2026, 22:14 UTC

1 66687U 25276X   26257.92691504  .00010651  00000-0  46032-3 0  9994
2 66687  97.4183 330.4155 0004119 169.5345 190.5979 15.22645973 44075

Volg IMPULSE-3 MIRA in realtime met AllMySat

Download on the App Store